Terug naar catalogus

OPS 4682 DEB

ActiefPO
NORAD 38406·DEBRIS·🇺🇸 United States

Gelanceerd Apr 3, 1965 vanaf Vandenberg Space Force Base

Loading…

Volgende Passages (komende 24 uur)

TLE

VerouderendSource: Space-Track

Epoch: Sep 10, 2026, 13:38 UTC

1 38406U 65027DK  26253.56814888  .00000462  00000-0  15017-2 0  9995
2 38406  90.2519  13.0823 0024397  28.7156 331.5304 13.00350942566362

Volg OPS 4682 DEB in realtime met AllMySat

Download on the App Store